CFE787 EGLC-EGPH

Flight info

Callsign CFE787
Flight time N/A
Altitude 24000
Route BPK N601 PIPIN/N0451F320 UN601 RIBEL DCT INPIP
Aircraft E190/M-SDE3GILORVW/S

Departure

Time N/A
Airport London City Airport (EGLC)

Arrival

Time 2026-05-05 14:39
Airport Edinburgh Airport (EGPH)
Time Latitude Longitude Altitude Speed Heading
2026-05-05 13:21 52.75700 -1.08821 23970 ft 364 kts 326°
2026-05-05 13:21 52.77822 -1.10943 23967 ft 362 kts 326°
2026-05-05 13:22 52.79971 -1.13095 23971 ft 361 kts 326°
2026-05-05 13:22 52.82121 -1.15256 23971 ft 362 kts 326°
2026-05-05 13:22 52.84273 -1.17419 23972 ft 362 kts 326°
2026-05-05 13:22 52.86424 -1.19583 23970 ft 362 kts 326°
2026-05-05 13:23 52.88573 -1.21748 23974 ft 362 kts 326°
2026-05-05 13:23 52.90723 -1.23917 23972 ft 362 kts 326°
2026-05-05 13:23 52.92871 -1.26086 23972 ft 362 kts 326°
2026-05-05 13:23 52.95021 -1.28261 23971 ft 362 kts 326°
2026-05-05 13:24 52.97172 -1.30437 23969 ft 362 kts 326°
2026-05-05 13:24 52.99293 -1.32586 23974 ft 362 kts 326°
2026-05-05 13:24 53.01433 -1.34754 23969 ft 361 kts 325°
2026-05-05 13:24 53.03580 -1.36933 23975 ft 360 kts 325°
2026-05-05 13:25 53.05717 -1.39108 23974 ft 361 kts 325°
2026-05-05 13:25 53.07855 -1.41287 23977 ft 361 kts 325°
2026-05-05 13:25 53.09993 -1.43467 23978 ft 361 kts 325°
2026-05-05 13:25 53.12133 -1.45649 23986 ft 361 kts 325°
2026-05-05 13:26 53.14273 -1.47833 23976 ft 360 kts 325°
2026-05-05 13:26 53.16373 -1.49982 23977 ft 360 kts 324°
2026-05-05 13:26 53.18508 -1.52172 23983 ft 360 kts 324°
2026-05-05 13:26 53.20645 -1.54362 23989 ft 361 kts 324°
2026-05-05 13:27 53.22785 -1.56557 23984 ft 360 kts 324°
2026-05-05 13:27 53.24919 -1.58752 23984 ft 361 kts 325°
2026-05-05 13:27 53.27059 -1.60955 23981 ft 361 kts 325°
2026-05-05 13:27 53.29198 -1.63155 23984 ft 361 kts 325°
2026-05-05 13:28 53.31327 -1.65352 23970 ft 359 kts 324°
2026-05-05 13:28 53.33447 -1.67542 23991 ft 358 kts 324°
2026-05-05 13:28 53.35567 -1.69736 24015 ft 359 kts 324°
2026-05-05 13:28 53.37692 -1.71937 24003 ft 359 kts 324°
2026-05-05 13:29 53.39817 -1.74137 24006 ft 359 kts 324°
2026-05-05 13:29 53.41940 -1.76339 24014 ft 359 kts 324°
2026-05-05 13:29 53.44033 -1.78516 24011 ft 359 kts 324°
2026-05-05 13:29 53.46154 -1.80722 24012 ft 359 kts 324°
2026-05-05 13:30 53.48275 -1.82929 24008 ft 359 kts 324°
2026-05-05 13:30 53.50399 -1.85141 24012 ft 359 kts 324°
2026-05-05 13:30 53.52519 -1.87349 24014 ft 359 kts 324°
2026-05-05 13:30 53.54638 -1.89561 24021 ft 359 kts 324°
2026-05-05 13:31 53.56761 -1.91780 24010 ft 359 kts 324°
2026-05-05 13:31 53.58879 -1.93996 24011 ft 359 kts 324°
2026-05-05 13:31 53.60971 -1.96188 24014 ft 360 kts 324°
2026-05-05 13:31 53.63097 -1.98424 24018 ft 361 kts 324°
2026-05-05 13:32 53.65224 -2.00665 24013 ft 361 kts 324°
2026-05-05 13:32 53.67355 -2.02910 24009 ft 361 kts 324°
2026-05-05 13:32 53.69480 -2.05151 24011 ft 361 kts 324°
2026-05-05 13:32 53.71608 -2.07398 24013 ft 361 kts 324°
2026-05-05 13:33 53.73731 -2.09633 24005 ft 358 kts 327°
2026-05-05 13:33 53.75983 -2.11430 24028 ft 359 kts 334°
2026-05-05 13:33 53.78303 -2.13022 24019 ft 360 kts 335°
2026-05-05 13:33 53.80630 -2.14586 24010 ft 361 kts 335°
2026-05-05 13:34 53.82960 -2.16156 24016 ft 360 kts 335°
2026-05-05 13:34 53.85254 -2.17706 24014 ft 360 kts 335°
2026-05-05 13:34 53.87578 -2.19284 24009 ft 360 kts 335°
2026-05-05 13:34 53.89901 -2.20880 24012 ft 360 kts 335°
2026-05-05 13:35 53.92224 -2.22483 24009 ft 360 kts 335°
2026-05-05 13:35 53.94542 -2.24081 24018 ft 360 kts 335°
2026-05-05 13:35 53.96863 -2.25683 24012 ft 360 kts 335°
2026-05-05 13:35 53.99189 -2.27286 24002 ft 360 kts 334°
2026-05-05 13:36 54.01509 -2.28888 24007 ft 360 kts 334°
2026-05-05 13:36 54.03798 -2.30474 24017 ft 360 kts 334°
2026-05-05 13:36 54.06120 -2.32076 24019 ft 360 kts 334°
2026-05-05 13:36 54.08440 -2.33680 24018 ft 360 kts 334°
2026-05-05 13:37 54.10761 -2.35285 24020 ft 360 kts 334°
2026-05-05 13:37 54.13083 -2.36891 24023 ft 360 kts 334°
2026-05-05 13:37 54.15404 -2.38502 24020 ft 360 kts 334°
2026-05-05 13:37 54.17725 -2.40112 24027 ft 360 kts 334°
2026-05-05 13:38 54.20047 -2.41727 24010 ft 360 kts 334°
2026-05-05 13:38 54.22369 -2.43343 24035 ft 360 kts 333°
2026-05-05 13:38 54.24686 -2.44959 24020 ft 360 kts 333°
2026-05-05 13:38 54.26974 -2.46555 24018 ft 360 kts 333°
2026-05-05 13:39 54.29292 -2.48174 24019 ft 360 kts 333°
2026-05-05 13:39 54.31604 -2.49791 24018 ft 360 kts 333°
2026-05-05 13:39 54.33924 -2.51416 24017 ft 360 kts 333°
2026-05-05 13:39 54.36239 -2.53038 24024 ft 360 kts 333°
2026-05-05 13:40 54.38561 -2.54669 24018 ft 360 kts 333°
2026-05-05 13:40 54.40874 -2.56294 24013 ft 360 kts 333°
2026-05-05 13:40 54.43191 -2.57925 24016 ft 360 kts 333°
2026-05-05 13:40 54.45503 -2.59555 24016 ft 359 kts 333°
2026-05-05 13:41 54.47789 -2.61166 24020 ft 359 kts 333°
2026-05-05 13:41 54.50098 -2.62797 24017 ft 358 kts 333°
2026-05-05 13:41 54.52404 -2.64429 24017 ft 359 kts 333°
2026-05-05 13:41 54.54711 -2.66063 24018 ft 359 kts 333°
2026-05-05 13:42 54.57019 -2.67699 24019 ft 359 kts 333°
2026-05-05 13:42 54.59327 -2.69338 24022 ft 359 kts 333°
2026-05-05 13:42 54.61639 -2.70981 24019 ft 359 kts 333°
2026-05-05 13:42 54.63949 -2.72624 24027 ft 359 kts 333°
2026-05-05 13:43 54.66227 -2.74246 24025 ft 359 kts 333°
2026-05-05 13:43 54.68539 -2.75895 24022 ft 359 kts 333°
2026-05-05 13:43 54.70848 -2.77545 24028 ft 359 kts 333°
2026-05-05 13:43 54.73156 -2.79197 24036 ft 358 kts 334°
2026-05-05 13:44 54.75452 -2.80840 24024 ft 356 kts 334°
2026-05-05 13:44 54.77745 -2.82484 24024 ft 357 kts 334°
2026-05-05 13:44 54.80038 -2.84131 24025 ft 357 kts 334°
2026-05-05 13:44 54.82339 -2.85783 24029 ft 357 kts 334°
2026-05-05 13:45 54.84603 -2.87411 24026 ft 357 kts 334°
2026-05-05 13:45 54.86898 -2.89064 24032 ft 357 kts 334°
2026-05-05 13:45 54.89193 -2.90722 24030 ft 357 kts 334°
2026-05-05 13:45 54.91486 -2.92380 24029 ft 357 kts 334°
2026-05-05 13:46 54.93786 -2.94042 24011 ft 358 kts 333°
2026-05-05 13:46 54.96095 -2.95717 23703 ft 360 kts 334°
2026-05-05 13:46 54.98389 -2.97376 23495 ft 355 kts 334°
2026-05-05 13:46 55.00666 -2.99028 22990 ft 355 kts 334°
2026-05-05 13:47 55.02933 -3.00675 22501 ft 351 kts 334°
2026-05-05 13:47 55.05164 -3.02297 22039 ft 345 kts 334°
2026-05-05 13:47 55.07341 -3.03882 21590 ft 341 kts 334°
2026-05-05 13:47 55.09520 -3.05471 21145 ft 338 kts 334°
2026-05-05 13:48 55.11677 -3.07047 20695 ft 335 kts 334°
2026-05-05 13:48 55.13823 -3.08615 20220 ft 333 kts 334°
2026-05-05 13:48 55.15975 -3.10193 19503 ft 337 kts 334°
2026-05-05 13:48 55.18139 -3.11780 18784 ft 339 kts 334°
2026-05-05 13:49 55.20333 -3.13394 17796 ft 346 kts 334°
2026-05-05 13:49 55.22565 -3.15037 16889 ft 349 kts 334°
2026-05-05 13:49 55.24813 -3.16691 15939 ft 352 kts 334°
2026-05-05 13:49 55.27045 -3.18334 15033 ft 353 kts 334°
2026-05-05 13:50 55.29301 -3.19970 14375 ft 348 kts 337°
2026-05-05 13:50 55.31668 -3.20688 13677 ft 342 kts 356°
2026-05-05 13:50 55.33966 -3.20270 13242 ft 323 kts
2026-05-05 13:50 55.36120 -3.19672 12812 ft 304 kts
2026-05-05 13:51 55.38162 -3.19204 12445 ft 289 kts
2026-05-05 13:51 55.40168 -3.18834 12120 ft 291 kts
2026-05-05 13:51 55.42184 -3.18500 11715 ft 291 kts
2026-05-05 13:51 55.44197 -3.18181 11340 ft 289 kts
2026-05-05 13:52 55.46163 -3.17874 10974 ft 287 kts
2026-05-05 13:52 55.48142 -3.17560 10596 ft 285 kts
2026-05-05 13:52 55.50108 -3.17249 10207 ft 283 kts
2026-05-05 13:52 55.52055 -3.16947 9832 ft 279 kts
2026-05-05 13:53 55.53976 -3.16645 9500 ft 275 kts
2026-05-05 13:53 55.55879 -3.16348 9142 ft 274 kts 360°
2026-05-05 13:53 55.57777 -3.16050 8763 ft 274 kts
2026-05-05 13:53 55.59674 -3.15748 8448 ft 274 kts
2026-05-05 13:54 55.61572 -3.15451 8063 ft 273 kts
2026-05-05 13:54 55.63428 -3.15160 7700 ft 270 kts
2026-05-05 13:54 55.65281 -3.14869 7406 ft 263 kts
2026-05-05 13:54 55.67068 -3.14611 7264 ft 252 kts 358°
2026-05-05 13:55 55.68685 -3.15360 7141 ft 237 kts 324°
2026-05-05 13:55 55.69663 -3.17619 7116 ft 236 kts 287°
2026-05-05 13:55 55.69669 -3.20535 7154 ft 243 kts 258°
2026-05-05 13:55 55.69091 -3.23323 7187 ft 242 kts 250°
2026-05-05 13:56 55.68467 -3.26099 7055 ft 245 kts 251°
2026-05-05 13:56 55.67939 -3.28948 7070 ft 242 kts 256°
2026-05-05 13:56 55.67486 -3.31839 7080 ft 246 kts 256°
2026-05-05 13:56 55.67056 -3.34755 7087 ft 245 kts 257°
2026-05-05 13:57 55.66640 -3.37693 7072 ft 245 kts 258°
2026-05-05 13:57 55.66227 -3.40633 7082 ft 247 kts 257°
2026-05-05 13:57 55.65804 -3.43562 7079 ft 245 kts 258°
2026-05-05 13:57 55.65386 -3.46468 7081 ft 243 kts 258°
2026-05-05 13:58 55.64970 -3.49386 7073 ft 246 kts 257°
2026-05-05 13:58 55.64556 -3.52238 7062 ft 237 kts 258°
2026-05-05 13:58 55.64152 -3.55038 6894 ft 231 kts 257°
2026-05-05 13:58 55.64044 -3.57783 6866 ft 222 kts 284°
2026-05-05 13:59 55.66185 -3.61502 6287 ft 223 kts 336°
2026-05-05 13:59 55.67621 -3.62564 5962 ft 225 kts 337°
2026-05-05 14:00 55.70338 -3.65180 5383 ft 218 kts 320°
2026-05-05 14:00 55.71075 -3.66356 5186 ft 213 kts 317°
2026-05-05 14:00 55.72495 -3.68686 4761 ft 207 kts 319°
2026-05-05 14:00 55.73570 -3.70362 4396 ft 204 kts 321°
2026-05-05 14:01 55.74624 -3.71950 4263 ft 190 kts 323°
2026-05-05 14:01 55.75596 -3.73400 4182 ft 176 kts 322°
2026-05-05 14:01 55.76470 -3.74799 4051 ft 163 kts 321°
2026-05-05 14:01 55.77254 -3.76202 3896 ft 155 kts 325°
2026-05-05 14:02 55.78157 -3.77136 3861 ft 146 kts 350°
2026-05-05 14:02 55.79104 -3.76994 3871 ft 136 kts 32°
2026-05-05 14:02 55.79932 -3.76078 3903 ft 146 kts 27°
2026-05-05 14:02 55.80854 -3.75317 3944 ft 148 kts 30°
2026-05-05 14:03 55.81729 -3.74408 3996 ft 143 kts 32°
2026-05-05 14:03 55.82570 -3.73470 3996 ft 144 kts 44°
2026-05-05 14:03 55.83131 -3.72015 3956 ft 144 kts 62°
2026-05-05 14:03 55.83625 -3.70474 3856 ft 144 kts 57°
2026-05-05 14:04 55.83989 -3.69493 3872 ft 144 kts 57°
2026-05-05 14:04 55.84684 -3.67504 3904 ft 141 kts 59°
2026-05-05 14:04 55.85190 -3.66008 3775 ft 144 kts 58°
2026-05-05 14:04 55.85707 -3.64510 3575 ft 139 kts 58°
2026-05-05 14:05 55.86212 -3.63038 3370 ft 137 kts 58°
2026-05-05 14:05 55.86699 -3.61616 3182 ft 135 kts 59°
2026-05-05 14:05 55.87182 -3.60203 3005 ft 130 kts 60°
2026-05-05 14:05 55.87649 -3.58841 2821 ft 133 kts 60°
2026-05-05 14:06 55.88133 -3.57423 2633 ft 135 kts 60°
2026-05-05 14:06 55.88627 -3.55980 2458 ft 135 kts 60°
2026-05-05 14:06 55.89107 -3.54579 2263 ft 132 kts 62°
2026-05-05 14:06 55.89579 -3.53194 2089 ft 131 kts 62°
2026-05-05 14:07 55.90049 -3.51811 1914 ft 131 kts 62°
2026-05-05 14:07 55.90530 -3.50397 1730 ft 137 kts 62°
2026-05-05 14:07 55.91013 -3.48971 1538 ft 133 kts 63°
2026-05-05 14:07 55.91496 -3.47588 1358 ft 129 kts 62°
2026-05-05 14:08 55.91952 -3.46219 1157 ft 127 kts 64°
2026-05-05 14:08 55.92401 -3.44852 986 ft 128 kts 60°
2026-05-05 14:08 55.92892 -3.43483 774 ft 133 kts 60°
2026-05-05 14:08 55.93355 -3.42066 593 ft 133 kts 62°
2026-05-05 14:09 55.93834 -3.40664 420 ft 131 kts 64°
2026-05-05 14:09 55.94323 -3.39259 179 ft 147 kts 58°
2026-05-05 14:09 55.94914 -3.37550 669 ft 178 kts 61°
2026-05-05 14:09 55.95581 -3.35501 1166 ft 204 kts 60°
2026-05-05 14:10 55.96330 -3.33221 1428 ft 226 kts 60°
2026-05-05 14:10 55.97172 -3.30763 1761 ft 236 kts 59°
2026-05-05 14:10 55.98026 -3.28447 2188 ft 201 kts 56°
2026-05-05 14:10 55.98821 -3.26487 2133 ft 188 kts 54°
2026-05-05 14:11 55.99586 -3.24738 1670 ft 167 kts 52°
2026-05-05 14:11 56.00241 -3.23281 1853 ft 142 kts 52°
2026-05-05 14:11 56.00841 -3.21952 1994 ft 135 kts 52°
2026-05-05 14:11 56.01419 -3.20678 2166 ft 132 kts 52°
2026-05-05 14:12 56.01990 -3.19422 2349 ft 131 kts 52°
2026-05-05 14:12 56.02572 -3.18144 2553 ft 135 kts 52°
2026-05-05 14:12 56.03171 -3.16830 2793 ft 147 kts 51°
2026-05-05 14:12 56.03867 -3.15304 3096 ft 165 kts 51°
2026-05-05 14:13 56.04634 -3.13620 3235 ft 180 kts 51°
2026-05-05 14:13 56.05320 -3.11745 3262 ft 187 kts 68°
2026-05-05 14:13 56.05430 -3.09451 3252 ft 196 kts 102°
2026-05-05 14:13 56.04579 -3.07574 3113 ft 202 kts 141°
2026-05-05 14:14 56.03220 -3.06635 2675 ft 214 kts 170°
2026-05-05 14:14 56.01752 -3.06936 2644 ft 211 kts 191°
2026-05-05 14:14 56.00355 -3.07792 2703 ft 218 kts 199°
2026-05-05 14:14 55.98925 -3.08897 2777 ft 239 kts 201°
2026-05-05 14:15 55.97392 -3.10267 3095 ft 242 kts 207°
2026-05-05 14:15 55.95984 -3.11933 3056 ft 238 kts 216°
2026-05-05 14:15 55.94765 -3.13838 3059 ft 227 kts 224°
2026-05-05 14:15 55.93734 -3.15960 3014 ft 229 kts 233°
2026-05-05 14:16 55.92888 -3.18304 3006 ft 222 kts 242°
2026-05-05 14:16 55.91961 -3.20478 2826 ft 225 kts 217°
2026-05-05 14:16 55.90574 -3.21604 2759 ft 218 kts 187°
2026-05-05 14:16 55.89090 -3.21735 2680 ft 214 kts 173°
2026-05-05 14:17 55.87637 -3.21453 3073 ft 213 kts 170°
2026-05-05 14:17 55.87379 -3.21404 3083 ft 218 kts 170°
2026-05-05 14:17 55.86942 -3.21333 3044 ft 220 kts 169°
2026-05-05 14:18 55.85408 -3.21170 3023 ft 220 kts 171°
2026-05-05 14:18 55.83884 -3.21084 3001 ft 220 kts 177°
2026-05-05 14:18 55.82371 -3.21442 2995 ft 220 kts 192°
2026-05-05 14:18 55.80927 -3.22444 2724 ft 229 kts 203°
2026-05-05 14:19 55.79609 -3.23847 2855 ft 213 kts 214°
2026-05-05 14:19 55.78485 -3.25554 3224 ft 227 kts 224°
2026-05-05 14:19 55.77440 -3.27644 3227 ft 228 kts 233°
2026-05-05 14:19 55.76572 -3.30000 3169 ft 227 kts 242°
2026-05-05 14:20 55.75889 -3.32554 2918 ft 225 kts 249°
2026-05-05 14:20 55.75141 -3.34837 2769 ft 210 kts 230°
2026-05-05 14:20 55.74220 -3.36757 2544 ft 202 kts 228°
2026-05-05 14:20 55.73603 -3.38013 2257 ft 207 kts 227°
2026-05-05 14:21 55.72377 -3.40596 1934 ft 197 kts 222°
2026-05-05 14:21 55.71360 -3.42038 1948 ft 182 kts 215°
2026-05-05 14:21 55.70422 -3.43408 1912 ft 171 kts 213°
2026-05-05 14:21 55.69410 -3.44807 1757 ft 208 kts 214°
2026-05-05 14:22 55.68250 -3.46488 2809 ft 223 kts 216°
2026-05-05 14:22 55.66983 -3.48450 3627 ft 265 kts 222°
2026-05-05 14:22 55.65677 -3.50613 4008 ft 238 kts 222°
2026-05-05 14:22 55.64999 -3.53129 4102 ft 232 kts 255°
2026-05-05 14:23 55.64550 -3.55848 4160 ft 229 kts 253°
2026-05-05 14:23 55.64210 -3.58609 3918 ft 232 kts 269°
2026-05-05 14:23 55.64410 -3.61407 3585 ft 233 kts 289°
2026-05-05 14:23 55.65276 -3.63797 2990 ft 237 kts 326°
2026-05-05 14:24 55.66532 -3.65419 3358 ft 203 kts 326°
2026-05-05 14:24 55.67557 -3.66839 4561 ft 181 kts 321°
2026-05-05 14:24 55.68439 -3.68633 4714 ft 211 kts 295°
2026-05-05 14:24 55.68792 -3.71239 4444 ft 219 kts 273°
2026-05-05 14:25 55.68773 -3.72990 4562 ft 216 kts 266°
2026-05-05 14:25 55.68655 -3.75797 3889 ft 242 kts 268°
2026-05-05 14:25 55.68569 -3.78754 3750 ft 233 kts 264°
2026-05-05 14:25 55.68138 -3.81523 3424 ft 240 kts 244°
2026-05-05 14:26 55.67070 -3.84910 3298 ft 232 kts 237°
2026-05-05 14:26 55.66199 -3.87310 3305 ft 232 kts 235°
2026-05-05 14:26 55.65345 -3.89636 3619 ft 225 kts 241°
2026-05-05 14:26 55.64706 -3.92246 3418 ft 235 kts 250°
2026-05-05 14:27 55.64507 -3.94188 3156 ft 240 kts 272°
2026-05-05 14:27 55.64882 -3.97047 2616 ft 246 kts 300°
2026-05-05 14:27 55.65831 -3.99136 2556 ft 227 kts 328°
2026-05-05 14:27 55.66517 -3.99731 2608 ft 215 kts 352°
2026-05-05 14:28 55.67950 -3.99376 2188 ft 215 kts 33°
2026-05-05 14:28 55.69092 -3.97726 1965 ft 208 kts 47°
2026-05-05 14:28 55.70342 -3.95440 2548 ft 188 kts 49°
2026-05-05 14:28 55.71276 -3.93849 3422 ft 184 kts 43°
2026-05-05 14:29 55.71940 -3.92870 3924 ft 192 kts 39°
2026-05-05 14:29 55.72975 -3.91508 4859 ft 187 kts 35°
2026-05-05 14:29 55.74074 -3.90008 5100 ft 208 kts 39°
2026-05-05 14:29 55.75146 -3.88230 5299 ft 215 kts 43°
2026-05-05 14:30 55.76212 -3.86326 5334 ft 227 kts 43°
2026-05-05 14:30 55.77404 -3.84284 4582 ft 245 kts 43°
2026-05-05 14:30 55.78633 -3.82236 3868 ft 243 kts 43°
2026-05-05 14:30 55.79818 -3.80314 3845 ft 211 kts 43°
2026-05-05 14:31 55.80801 -3.78691 4005 ft 180 kts 43°
2026-05-05 14:31 55.81695 -3.77209 3782 ft 174 kts 45°
2026-05-05 14:31 55.82531 -3.75677 3583 ft 169 kts 50°
2026-05-05 14:31 55.83178 -3.74053 3449 ft 155 kts 57°
2026-05-05 14:32 55.83747 -3.72624 3498 ft 137 kts 56°
2026-05-05 14:32 55.84247 -3.71180 3325 ft 134 kts 62°
2026-05-05 14:32 55.84665 -3.69751 3144 ft 128 kts 63°
2026-05-05 14:32 55.85039 -3.68427 3088 ft 119 kts 64°
2026-05-05 14:33 55.85427 -3.67061 2889 ft 126 kts 64°
2026-05-05 14:33 55.85838 -3.65723 2769 ft 121 kts 61°
2026-05-05 14:33 55.86265 -3.64434 2660 ft 123 kts 63°
2026-05-05 14:33 55.86663 -3.63060 2473 ft 125 kts 67°
2026-05-05 14:34 55.87000 -3.61706 2369 ft 117 kts 67°
2026-05-05 14:34 55.87369 -3.60409 2436 ft 113 kts 63°
2026-05-05 14:34 55.87793 -3.59118 2595 ft 130 kts 61°
2026-05-05 14:34 55.88268 -3.57762 2435 ft 127 kts 60°
2026-05-05 14:35 55.88741 -3.56446 2245 ft 123 kts 62°
2026-05-05 14:35 55.89186 -3.55161 2082 ft 120 kts 63°
2026-05-05 14:35 55.89609 -3.53854 1904 ft 120 kts 62°
2026-05-05 14:35 55.90058 -3.52542 1801 ft 125 kts 60°
2026-05-05 14:36 55.90526 -3.51274 1797 ft 121 kts 64°
2026-05-05 14:36 55.90944 -3.49947 1705 ft 121 kts 66°
2026-05-05 14:36 55.91358 -3.48638 1612 ft 120 kts 64°
2026-05-05 14:36 55.91774 -3.47292 1426 ft 123 kts 65°
2026-05-05 14:37 55.92180 -3.45933 1191 ft 126 kts 66°
2026-05-05 14:37 55.92602 -3.44587 973 ft 122 kts 64°
2026-05-05 14:37 55.93035 -3.43275 744 ft 117 kts 62°
2026-05-05 14:37 55.93439 -3.42058 629 ft 116 kts 63°
2026-05-05 14:38 55.93825 -3.40723 433 ft 123 kts 64°
2026-05-05 14:38 55.94275 -3.39389 235 ft 120 kts 60°
2026-05-05 14:38 55.94701 -3.38137 112 ft 110 kts 60°
2026-05-05 14:38 55.95022 -3.37181 110 ft 68 kts 58°
2026-05-05 14:39 55.95174 -3.36723 113 ft 20 kts 61°
2026-05-05 14:39 55.95252 -3.36498 110 ft 24 kts 60°
2026-05-05 14:39 55.95227 -3.36388 112 ft 10 kts 148°
2026-05-05 14:39 55.95150 -3.36325 113 ft 14 kts 181°
2026-05-05 14:40 55.95067 -3.36405 115 ft 11 kts 182°
2026-05-05 14:40 55.94994 -3.36447 115 ft 14 kts 236°
2026-05-05 14:40 55.94927 -3.36654 114 ft 24 kts 237°
2026-05-05 14:40 55.94849 -3.36788 112 ft 5 kts 165°
2026-05-05 14:41 55.94841 -3.36772 113 ft 1 kts 118°
2026-05-05 14:41 55.94835 -3.36739 115 ft 3 kts 97°
2026-05-05 14:41 55.94836 -3.36689 113 ft 6 kts 89°
2026-05-05 14:41 55.94836 -3.36630 114 ft 0 kts 89°
2026-05-05 14:42 55.94836 -3.36629 114 ft 0 kts 89°